#datetime,building,power
2023-06-18T00:00:00,atd,19.74
2023-06-18T00:01:00,atd,15.35
2023-06-18T00:02:00,atd,18.29
2023-06-18T00:03:00,atd,18.79
2023-06-18T00:04:00,atd,32.66
2023-06-18T00:05:00,atd,33.47
2023-06-18T00:06:00,atd,34.03
2023-06-18T00:07:00,atd,29.01
2023-06-18T00:08:00,atd,18.49
2023-06-18T00:09:00,atd,18.50
2023-06-18T00:10:00,atd,19.28
2023-06-18T00:11:00,atd,21.36
2023-06-18T00:12:00,atd,37.15
2023-06-18T00:13:00,atd,24.93
2023-06-18T00:14:00,atd,22.71
2023-06-18T00:15:00,atd,21.21
2023-06-18T00:16:00,atd,23.39
2023-06-18T00:17:00,atd,17.77
2023-06-18T00:18:00,atd,19.62
2023-06-18T00:19:00,atd,18.30
2023-06-18T00:20:00,atd,18.64
2023-06-18T00:21:00,atd,18.00
2023-06-18T00:22:00,atd,19.04
2023-06-18T00:23:00,atd,16.52
2023-06-18T00:24:00,atd,15.50
2023-06-18T00:25:00,atd,16.75
2023-06-18T00:26:00,atd,19.27
2023-06-18T00:27:00,atd,18.89
2023-06-18T00:28:00,atd,18.94
2023-06-18T00:29:00,atd,17.94
2023-06-18T00:30:00,atd,30.46
2023-06-18T00:31:00,atd,17.85
2023-06-18T00:32:00,atd,16.52
2023-06-18T00:33:00,atd,17.91
2023-06-18T00:34:00,atd,19.26
2023-06-18T00:35:00,atd,20.58
2023-06-18T00:36:00,atd,18.26
2023-06-18T00:37:00,atd,18.53
2023-06-18T00:38:00,atd,17.77
2023-06-18T00:39:00,atd,29.36
2023-06-18T00:40:00,atd,17.56
2023-06-18T00:41:00,atd,18.40
2023-06-18T00:42:00,atd,21.33
2023-06-18T00:43:00,atd,19.06
2023-06-18T00:44:00,atd,19.40
2023-06-18T00:45:00,atd,19.66
2023-06-18T00:46:00,atd,19.79
2023-06-18T00:47:00,atd,17.09
2023-06-18T00:48:00,atd,18.69
2023-06-18T00:49:00,atd,18.25
2023-06-18T00:50:00,atd,19.63
2023-06-18T00:51:00,atd,16.78
2023-06-18T00:52:00,atd,18.68
2023-06-18T00:53:00,atd,15.38
2023-06-18T00:54:00,atd,17.71
2023-06-18T00:55:00,atd,18.73
2023-06-18T00:56:00,atd,18.72
2023-06-18T00:57:00,atd,20.17
2023-06-18T00:58:00,atd,20.48
2023-06-18T00:59:00,atd,21.65
2023-06-18T01:00:00,atd,19.63
2023-06-18T01:01:00,atd,20.20
2023-06-18T01:02:00,atd,20.10
2023-06-18T01:03:00,atd,16.80
2023-06-18T01:04:00,atd,14.69
2023-06-18T01:05:00,atd,16.79
2023-06-18T01:06:00,atd,18.17
2023-06-18T01:07:00,atd,28.95
2023-06-18T01:08:00,atd,17.13
2023-06-18T01:09:00,atd,18.20
2023-06-18T01:10:00,atd,14.98
2023-06-18T01:11:00,atd,17.57
2023-06-18T01:12:00,atd,16.25
2023-06-18T01:13:00,atd,19.80
2023-06-18T01:14:00,atd,22.77
2023-06-18T01:15:00,atd,22.77
2023-06-18T01:16:00,atd,25.23
2023-06-18T01:17:00,atd,24.69
2023-06-18T01:18:00,atd,24.23
2023-06-18T01:19:00,atd,24.42
2023-06-18T01:20:00,atd,20.55
2023-06-18T01:21:00,atd,23.28
2023-06-18T01:22:00,atd,23.76
2023-06-18T01:23:00,atd,23.88
2023-06-18T01:24:00,atd,23.71
2023-06-18T01:25:00,atd,20.62
2023-06-18T01:26:00,atd,18.00
2023-06-18T01:27:00,atd,16.90
2023-06-18T01:28:00,atd,22.99
2023-06-18T01:29:00,atd,17.44
2023-06-18T01:30:00,atd,17.12
2023-06-18T01:31:00,atd,19.89
2023-06-18T01:32:00,atd,22.82
2023-06-18T01:33:00,atd,23.51
2023-06-18T01:34:00,atd,20.79
2023-06-18T01:35:00,atd,17.92
2023-06-18T01:36:00,atd,19.13
2023-06-18T01:37:00,atd,18.58
2023-06-18T01:38:00,atd,19.27
2023-06-18T01:39:00,atd,17.95
2023-06-18T01:40:00,atd,18.78
2023-06-18T01:41:00,atd,16.74
2023-06-18T01:42:00,atd,17.56
2023-06-18T01:43:00,atd,17.72
2023-06-18T01:44:00,atd,16.67
2023-06-18T01:45:00,atd,16.72
2023-06-18T01:46:00,atd,29.67
2023-06-18T01:47:00,atd,17.53
2023-06-18T01:48:00,atd,19.47
2023-06-18T01:49:00,atd,18.00
2023-06-18T01:50:00,atd,16.80
2023-06-18T01:51:00,atd,18.38
2023-06-18T01:52:00,atd,20.96
2023-06-18T01:53:00,atd,22.94
2023-06-18T01:54:00,atd,21.27
2023-06-18T01:55:00,atd,24.12
2023-06-18T01:56:00,atd,18.95
2023-06-18T01:57:00,atd,21.89
2023-06-18T01:58:00,atd,17.75
2023-06-18T01:59:00,atd,20.60
2023-06-18T02:00:00,atd,21.28
2023-06-18T02:01:00,atd,20.82
2023-06-18T02:02:00,atd,21.90
2023-06-18T02:03:00,atd,22.56
2023-06-18T02:04:00,atd,20.42
2023-06-18T02:05:00,atd,21.24
2023-06-18T02:06:00,atd,24.31
2023-06-18T02:07:00,atd,19.21
2023-06-18T02:08:00,atd,17.67
2023-06-18T02:09:00,atd,21.53
2023-06-18T02:10:00,atd,21.03
2023-06-18T02:11:00,atd,19.95
2023-06-18T02:12:00,atd,19.79
2023-06-18T02:13:00,atd,18.77
2023-06-18T02:14:00,atd,16.91
2023-06-18T02:15:00,atd,16.14
2023-06-18T02:16:00,atd,16.85
2023-06-18T02:17:00,atd,17.01
2023-06-18T02:18:00,atd,15.79
2023-06-18T02:19:00,atd,16.40
2023-06-18T02:20:00,atd,16.02
2023-06-18T02:21:00,atd,18.61
2023-06-18T02:22:00,atd,18.99
2023-06-18T02:23:00,atd,20.28
2023-06-18T02:24:00,atd,19.47
2023-06-18T02:25:00,atd,19.69
2023-06-18T02:26:00,atd,21.00
2023-06-18T02:27:00,atd,21.36
2023-06-18T02:28:00,atd,16.52
2023-06-18T02:29:00,atd,17.48
2023-06-18T02:30:00,atd,17.51
2023-06-18T02:31:00,atd,16.86
2023-06-18T02:32:00,atd,19.02
2023-06-18T02:33:00,atd,18.12
2023-06-18T02:34:00,atd,18.52
2023-06-18T02:35:00,atd,17.11
2023-06-18T02:36:00,atd,20.91
2023-06-18T02:37:00,atd,19.31
2023-06-18T02:38:00,atd,20.00
2023-06-18T02:39:00,atd,19.61
2023-06-18T02:40:00,atd,19.44
2023-06-18T02:41:00,atd,19.82
2023-06-18T02:42:00,atd,17.13
2023-06-18T02:43:00,atd,18.32
2023-06-18T02:44:00,atd,27.16
2023-06-18T02:45:00,atd,25.81
2023-06-18T02:46:00,atd,23.22
2023-06-18T02:47:00,atd,21.97
2023-06-18T02:48:00,atd,13.26
2023-06-18T02:49:00,atd,17.16
2023-06-18T02:50:00,atd,18.90
2023-06-18T02:51:00,atd,20.41
2023-06-18T02:52:00,atd,22.69
2023-06-18T02:53:00,atd,20.64
2023-06-18T02:54:00,atd,19.08
2023-06-18T02:55:00,atd,16.83
2023-06-18T02:56:00,atd,17.37
2023-06-18T02:57:00,atd,15.53
2023-06-18T02:58:00,atd,15.47
2023-06-18T02:59:00,atd,15.99
2023-06-18T03:00:00,atd,17.91
2023-06-18T03:01:00,atd,23.01
2023-06-18T03:02:00,atd,18.90
2023-06-18T03:03:00,atd,30.36
2023-06-18T03:04:00,atd,17.89
2023-06-18T03:05:00,atd,20.58
2023-06-18T03:06:00,atd,22.90
2023-06-18T03:07:00,atd,22.95
2023-06-18T03:08:00,atd,23.97
2023-06-18T03:09:00,atd,21.82
2023-06-18T03:10:00,atd,21.05
2023-06-18T03:11:00,atd,17.68
2023-06-18T03:12:00,atd,17.75
2023-06-18T03:13:00,atd,16.81
2023-06-18T03:14:00,atd,18.19
2023-06-18T03:15:00,atd,19.66
2023-06-18T03:16:00,atd,16.11
2023-06-18T03:17:00,atd,17.49
2023-06-18T03:18:00,atd,17.58
2023-06-18T03:19:00,atd,21.04
2023-06-18T03:20:00,atd,18.80
2023-06-18T03:21:00,atd,19.57
2023-06-18T03:22:00,atd,32.00
2023-06-18T03:23:00,atd,22.23
2023-06-18T03:24:00,atd,20.09
2023-06-18T03:25:00,atd,21.11
2023-06-18T03:26:00,atd,14.47
2023-06-18T03:27:00,atd,16.87
2023-06-18T03:28:00,atd,16.52
2023-06-18T03:29:00,atd,13.77
2023-06-18T03:30:00,atd,15.41
2023-06-18T03:31:00,atd,25.70
2023-06-18T03:32:00,atd,26.59
2023-06-18T03:33:00,atd,29.10
2023-06-18T03:34:00,atd,27.02
2023-06-18T03:35:00,atd,19.56
2023-06-18T03:36:00,atd,18.95
2023-06-18T03:37:00,atd,22.84
2023-06-18T03:38:00,atd,18.56
2023-06-18T03:39:00,atd,17.42
2023-06-18T03:40:00,atd,18.00
2023-06-18T03:41:00,atd,27.54
2023-06-18T03:42:00,atd,18.24
2023-06-18T03:43:00,atd,19.89
2023-06-18T03:44:00,atd,19.33
2023-06-18T03:45:00,atd,18.84
2023-06-18T03:46:00,atd,18.18
2023-06-18T03:47:00,atd,19.82
2023-06-18T03:48:00,atd,16.99
2023-06-18T03:49:00,atd,16.98
2023-06-18T03:50:00,atd,18.18
2023-06-18T03:51:00,atd,21.98
2023-06-18T03:52:00,atd,21.21
2023-06-18T03:53:00,atd,18.34
2023-06-18T03:54:00,atd,19.89
2023-06-18T03:55:00,atd,19.15
2023-06-18T03:56:00,atd,17.42
2023-06-18T03:57:00,atd,16.19
2023-06-18T03:58:00,atd,18.69
2023-06-18T03:59:00,atd,21.97
2023-06-18T04:00:00,atd,22.37
2023-06-18T04:01:00,atd,18.72
2023-06-18T04:02:00,atd,33.34
2023-06-18T04:03:00,atd,19.46
2023-06-18T04:04:00,atd,19.88
2023-06-18T04:05:00,atd,18.96
2023-06-18T04:06:00,atd,18.38
2023-06-18T04:07:00,atd,25.80
2023-06-18T04:08:00,atd,19.15
2023-06-18T04:09:00,atd,19.80
2023-06-18T04:10:00,atd,18.98
2023-06-18T04:11:00,atd,21.78
2023-06-18T04:12:00,atd,15.84
2023-06-18T04:13:00,atd,17.57
2023-06-18T04:14:00,atd,13.65
2023-06-18T04:15:00,atd,12.76
2023-06-18T04:16:00,atd,19.33
2023-06-18T04:17:00,atd,17.16
2023-06-18T04:18:00,atd,17.91
2023-06-18T04:19:00,atd,17.00
2023-06-18T04:20:00,atd,19.04
2023-06-18T04:21:00,atd,18.28
2023-06-18T04:22:00,atd,19.02
2023-06-18T04:23:00,atd,22.94
2023-06-18T04:24:00,atd,23.49
2023-06-18T04:25:00,atd,24.96
2023-06-18T04:26:00,atd,25.19
2023-06-18T04:27:00,atd,23.09
2023-06-18T04:28:00,atd,19.87
2023-06-18T04:29:00,atd,21.42
2023-06-18T04:30:00,atd,20.80
2023-06-18T04:31:00,atd,17.87
2023-06-18T04:32:00,atd,17.89
2023-06-18T04:33:00,atd,19.48
2023-06-18T04:34:00,atd,20.70
2023-06-18T04:35:00,atd,19.71
2023-06-18T04:36:00,atd,19.40
2023-06-18T04:37:00,atd,23.93
2023-06-18T04:38:00,atd,25.29
2023-06-18T04:39:00,atd,21.69
2023-06-18T04:40:00,atd,34.60
2023-06-18T04:41:00,atd,23.06
2023-06-18T04:42:00,atd,19.07
2023-06-18T04:43:00,atd,16.33
2023-06-18T04:44:00,atd,19.28
2023-06-18T04:45:00,atd,18.09
2023-06-18T04:46:00,atd,16.64
2023-06-18T04:47:00,atd,16.07
2023-06-18T04:48:00,atd,17.25
2023-06-18T04:49:00,atd,15.27
2023-06-18T04:50:00,atd,16.94
2023-06-18T04:51:00,atd,14.83
2023-06-18T04:52:00,atd,22.73
2023-06-18T04:53:00,atd,19.82
2023-06-18T04:54:00,atd,18.80
2023-06-18T04:55:00,atd,18.80
2023-06-18T04:56:00,atd,20.22
2023-06-18T04:57:00,atd,18.19
2023-06-18T04:58:00,atd,27.57
2023-06-18T04:59:00,atd,15.07
2023-06-18T05:00:00,atd,16.78
2023-06-18T05:01:00,atd,16.30
2023-06-18T05:02:00,atd,17.05
2023-06-18T05:03:00,atd,18.55
2023-06-18T05:04:00,atd,16.74
2023-06-18T05:05:00,atd,17.28
2023-06-18T05:06:00,atd,15.12
2023-06-18T05:07:00,atd,18.82
2023-06-18T05:08:00,atd,20.96
2023-06-18T05:09:00,atd,20.01
2023-06-18T05:10:00,atd,17.90
2023-06-18T05:11:00,atd,19.17
2023-06-18T05:12:00,atd,14.54
2023-06-18T05:13:00,atd,15.28
2023-06-18T05:14:00,atd,18.93
2023-06-18T05:15:00,atd,15.62
2023-06-18T05:16:00,atd,15.79
2023-06-18T05:17:00,atd,17.03
2023-06-18T05:18:00,atd,13.46
2023-06-18T05:19:00,atd,14.11
2023-06-18T05:20:00,atd,15.69
2023-06-18T05:21:00,atd,13.94
2023-06-18T05:22:00,atd,15.70
2023-06-18T05:23:00,atd,19.85
2023-06-18T05:24:00,atd,15.14
2023-06-18T05:25:00,atd,20.40
2023-06-18T05:26:00,atd,20.50
2023-06-18T05:27:00,atd,16.70
2023-06-18T05:28:00,atd,15.76
2023-06-18T05:29:00,atd,13.48
2023-06-18T05:30:00,atd,16.87
2023-06-18T05:31:00,atd,22.98
2023-06-18T05:32:00,atd,28.82
2023-06-18T05:33:00,atd,62.48
2023-06-18T05:34:00,atd,65.93
2023-06-18T05:35:00,atd,84.80
2023-06-18T05:36:00,atd,70.62
2023-06-18T05:37:00,atd,71.97
2023-06-18T05:38:00,atd,31.35
2023-06-18T05:39:00,atd,31.43
2023-06-18T05:40:00,atd,30.42
2023-06-18T05:41:00,atd,30.95
2023-06-18T05:42:00,atd,27.02
2023-06-18T05:43:00,atd,29.17
2023-06-18T05:44:00,atd,31.27
2023-06-18T05:45:00,atd,30.77
2023-06-18T05:46:00,atd,32.74
2023-06-18T05:47:00,atd,29.38
2023-06-18T05:48:00,atd,30.66
2023-06-18T05:49:00,atd,29.14
2023-06-18T05:50:00,atd,57.65
2023-06-18T05:51:00,atd,62.81
2023-06-18T05:52:00,atd,65.08
2023-06-18T05:53:00,atd,66.72
2023-06-18T05:54:00,atd,33.62
2023-06-18T05:55:00,atd,31.32
2023-06-18T05:56:00,atd,31.04
2023-06-18T05:57:00,atd,30.81
2023-06-18T05:58:00,atd,28.91
2023-06-18T05:59:00,atd,27.64
2023-06-18T06:00:00,atd,30.33
2023-06-18T06:01:00,atd,26.10
2023-06-18T06:02:00,atd,26.08
2023-06-18T06:03:00,atd,35.33
2023-06-18T06:04:00,atd,36.01
2023-06-18T06:05:00,atd,34.48
2023-06-18T06:06:00,atd,33.28
2023-06-18T06:07:00,atd,27.31
2023-06-18T06:08:00,atd,26.80
2023-06-18T06:09:00,atd,27.22
2023-06-18T06:10:00,atd,30.12
2023-06-18T06:11:00,atd,30.04
2023-06-18T06:12:00,atd,30.80
2023-06-18T06:13:00,atd,20.57
2023-06-18T06:14:00,atd,20.99
2023-06-18T06:15:00,atd,21.17
2023-06-18T06:16:00,atd,22.70
2023-06-18T06:17:00,atd,20.67
2023-06-18T06:18:00,atd,18.31
2023-06-18T06:19:00,atd,19.42
2023-06-18T06:20:00,atd,18.91
2023-06-18T06:21:00,atd,20.55
2023-06-18T06:22:00,atd,23.24
2023-06-18T06:23:00,atd,22.37
2023-06-18T06:24:00,atd,24.60
2023-06-18T06:25:00,atd,23.94
2023-06-18T06:26:00,atd,19.41
2023-06-18T06:27:00,atd,20.38
2023-06-18T06:28:00,atd,16.27
2023-06-18T06:29:00,atd,18.21
2023-06-18T06:30:00,atd,20.28
2023-06-18T06:31:00,atd,18.03
2023-06-18T06:32:00,atd,21.51
2023-06-18T06:33:00,atd,20.84
2023-06-18T06:34:00,atd,24.57
2023-06-18T06:35:00,atd,25.75
2023-06-18T06:36:00,atd,20.86
2023-06-18T06:37:00,atd,20.39
2023-06-18T06:38:00,atd,21.39
2023-06-18T06:39:00,atd,21.53
2023-06-18T06:40:00,atd,23.90
2023-06-18T06:41:00,atd,21.29
2023-06-18T06:42:00,atd,24.27
2023-06-18T06:43:00,atd,24.00
2023-06-18T06:44:00,atd,22.20
2023-06-18T06:45:00,atd,22.13
2023-06-18T06:46:00,atd,22.05
2023-06-18T06:47:00,atd,24.81
2023-06-18T06:48:00,atd,20.26
2023-06-18T06:49:00,atd,21.03
2023-06-18T06:50:00,atd,20.59
2023-06-18T06:51:00,atd,21.69
2023-06-18T06:52:00,atd,21.74
2023-06-18T06:53:00,atd,19.73
2023-06-18T06:54:00,atd,21.58
2023-06-18T06:55:00,atd,40.61
2023-06-18T06:56:00,atd,37.48
2023-06-18T06:57:00,atd,37.82
2023-06-18T06:58:00,atd,36.81
2023-06-18T06:59:00,atd,23.93
2023-06-18T07:00:00,atd,38.31
2023-06-18T07:01:00,atd,23.78
2023-06-18T07:02:00,atd,25.45
2023-06-18T07:03:00,atd,23.89
2023-06-18T07:04:00,atd,27.39
2023-06-18T07:05:00,atd,22.13
2023-06-18T07:06:00,atd,19.59
2023-06-18T07:07:00,atd,20.23
2023-06-18T07:08:00,atd,18.71
2023-06-18T07:09:00,atd,19.68
2023-06-18T07:10:00,atd,25.03
2023-06-18T07:11:00,atd,27.51
2023-06-18T07:12:00,atd,25.41
2023-06-18T07:13:00,atd,27.77
2023-06-18T07:14:00,atd,25.24
2023-06-18T07:15:00,atd,23.16
2023-06-18T07:16:00,atd,23.71
2023-06-18T07:17:00,atd,23.33
2023-06-18T07:18:00,atd,21.09
2023-06-18T07:19:00,atd,20.96
2023-06-18T07:20:00,atd,22.61
2023-06-18T07:21:00,atd,23.22
2023-06-18T07:22:00,atd,21.81
2023-06-18T07:23:00,atd,21.95
2023-06-18T07:24:00,atd,19.62
2023-06-18T07:25:00,atd,24.41
2023-06-18T07:26:00,atd,21.95
2023-06-18T07:27:00,atd,25.86
2023-06-18T07:28:00,atd,24.98
2023-06-18T07:29:00,atd,23.98
2023-06-18T07:30:00,atd,20.05
2023-06-18T07:31:00,atd,18.20
2023-06-18T07:32:00,atd,23.45
2023-06-18T07:33:00,atd,19.59
2023-06-18T07:34:00,atd,30.47
2023-06-18T07:35:00,atd,19.46
2023-06-18T07:36:00,atd,21.49
2023-06-18T07:37:00,atd,20.83
2023-06-18T07:38:00,atd,20.93
2023-06-18T07:39:00,atd,23.88
2023-06-18T07:40:00,atd,21.26
2023-06-18T07:41:00,atd,22.84
2023-06-18T07:42:00,atd,22.79
2023-06-18T07:43:00,atd,20.87
2023-06-18T07:44:00,atd,21.87
2023-06-18T07:45:00,atd,20.97
2023-06-18T07:46:00,atd,25.31
2023-06-18T07:47:00,atd,22.39
2023-06-18T07:48:00,atd,21.53
2023-06-18T07:49:00,atd,22.25
2023-06-18T07:50:00,atd,17.95
2023-06-18T07:51:00,atd,31.76
2023-06-18T07:52:00,atd,21.54
2023-06-18T07:53:00,atd,20.54
2023-06-18T07:54:00,atd,20.45
2023-06-18T07:55:00,atd,20.07
2023-06-18T07:56:00,atd,23.74
2023-06-18T07:57:00,atd,23.60
2023-06-18T07:58:00,atd,24.24
2023-06-18T07:59:00,atd,22.83
2023-06-18T08:00:00,atd,23.97
2023-06-18T08:01:00,atd,28.33
2023-06-18T08:02:00,atd,23.45
2023-06-18T08:03:00,atd,22.57
2023-06-18T08:04:00,atd,24.84
2023-06-18T08:05:00,atd,23.57
2023-06-18T08:06:00,atd,24.96
2023-06-18T08:07:00,atd,24.03
2023-06-18T08:08:00,atd,24.79
2023-06-18T08:09:00,atd,19.83
2023-06-18T08:10:00,atd,21.78
2023-06-18T08:11:00,atd,23.93
2023-06-18T08:12:00,atd,23.03
2023-06-18T08:13:00,atd,23.75
2023-06-18T08:14:00,atd,27.06
2023-06-18T08:15:00,atd,26.13
2023-06-18T08:16:00,atd,24.72
2023-06-18T08:17:00,atd,24.58
2023-06-18T08:18:00,atd,22.51
2023-06-18T08:19:00,atd,19.02
2023-06-18T08:20:00,atd,21.23
2023-06-18T08:21:00,atd,18.41
2023-06-18T08:22:00,atd,21.23
2023-06-18T08:23:00,atd,21.23
2023-06-18T08:24:00,atd,19.45
2023-06-18T08:25:00,atd,20.22
2023-06-18T08:26:00,atd,24.50
2023-06-18T08:27:00,atd,21.81
2023-06-18T08:28:00,atd,23.14
2023-06-18T08:29:00,atd,21.45
2023-06-18T08:30:00,atd,21.83
2023-06-18T08:31:00,atd,20.13
2023-06-18T08:32:00,atd,21.65
2023-06-18T08:33:00,atd,20.14
2023-06-18T08:34:00,atd,21.16
2023-06-18T08:35:00,atd,22.11
2023-06-18T08:36:00,atd,21.48
2023-06-18T08:37:00,atd,21.97
2023-06-18T08:38:00,atd,21.46
2023-06-18T08:39:00,atd,21.42
2023-06-18T08:40:00,atd,20.57
2023-06-18T08:41:00,atd,28.26
2023-06-18T08:42:00,atd,29.76
2023-06-18T08:43:00,atd,25.64
2023-06-18T08:44:00,atd,26.81
2023-06-18T08:45:00,atd,25.57
2023-06-18T08:46:00,atd,23.96
2023-06-18T08:47:00,atd,22.08
2023-06-18T08:48:00,atd,22.80
2023-06-18T08:49:00,atd,24.03
2023-06-18T08:50:00,atd,24.34
2023-06-18T08:51:00,atd,25.56
2023-06-18T08:52:00,atd,23.61
2023-06-18T08:53:00,atd,23.36
2023-06-18T08:54:00,atd,22.48
2023-06-18T08:55:00,atd,27.19
2023-06-18T08:56:00,atd,28.07
2023-06-18T08:57:00,atd,25.36
2023-06-18T08:58:00,atd,23.87
2023-06-18T08:59:00,atd,26.61
2023-06-18T09:00:00,atd,21.60
2023-06-18T09:01:00,atd,19.81
2023-06-18T09:02:00,atd,21.21
2023-06-18T09:03:00,atd,19.32
2023-06-18T09:04:00,atd,21.33
2023-06-18T09:05:00,atd,20.59
2023-06-18T09:06:00,atd,20.67
2023-06-18T09:07:00,atd,28.07
2023-06-18T09:08:00,atd,27.82
2023-06-18T09:09:00,atd,27.66
2023-06-18T09:10:00,atd,33.32
2023-06-18T09:11:00,atd,21.25
2023-06-18T09:12:00,atd,22.95
2023-06-18T09:13:00,atd,21.23
2023-06-18T09:14:00,atd,24.85
2023-06-18T09:15:00,atd,23.37
2023-06-18T09:16:00,atd,24.35
2023-06-18T09:17:00,atd,33.27
2023-06-18T09:18:00,atd,19.57
2023-06-18T09:19:00,atd,20.51
2023-06-18T09:20:00,atd,20.64
2023-06-18T09:21:00,atd,19.71
2023-06-18T09:22:00,atd,21.04
2023-06-18T09:23:00,atd,21.58
2023-06-18T09:24:00,atd,20.68
2023-06-18T09:25:00,atd,20.80
2023-06-18T09:26:00,atd,23.22
2023-06-18T09:27:00,atd,19.72
2023-06-18T09:28:00,atd,20.93
2023-06-18T09:29:00,atd,22.68
2023-06-18T09:30:00,atd,20.23
2023-06-18T09:31:00,atd,18.95
2023-06-18T09:32:00,atd,22.49
2023-06-18T09:33:00,atd,19.11
2023-06-18T09:34:00,atd,23.16
2023-06-18T09:35:00,atd,21.46
2023-06-18T09:36:00,atd,20.26
2023-06-18T09:37:00,atd,21.05
2023-06-18T09:38:00,atd,21.19
2023-06-18T09:39:00,atd,24.80
2023-06-18T09:40:00,atd,29.70
2023-06-18T09:41:00,atd,28.81
2023-06-18T09:42:00,atd,66.99
2023-06-18T09:43:00,atd,76.22
2023-06-18T09:44:00,atd,75.68
2023-06-18T09:45:00,atd,30.91
2023-06-18T09:46:00,atd,29.58
2023-06-18T09:47:00,atd,27.68
2023-06-18T09:48:00,atd,27.25
2023-06-18T09:49:00,atd,26.62
2023-06-18T09:50:00,atd,37.39
2023-06-18T09:51:00,atd,24.03
2023-06-18T09:52:00,atd,29.49
2023-06-18T09:53:00,atd,30.47
2023-06-18T09:54:00,atd,29.24
2023-06-18T09:55:00,atd,28.30
2023-06-18T09:56:00,atd,29.80
2023-06-18T09:57:00,atd,29.17
2023-06-18T09:58:00,atd,32.43
2023-06-18T09:59:00,atd,28.31
2023-06-18T10:00:00,atd,27.10
2023-06-18T10:01:00,atd,23.23
2023-06-18T10:02:00,atd,23.60
2023-06-18T10:03:00,atd,25.73
2023-06-18T10:04:00,atd,27.18
2023-06-18T10:05:00,atd,25.73
2023-06-18T10:06:00,atd,24.54
2023-06-18T10:07:00,atd,27.76
2023-06-18T10:08:00,atd,26.60
2023-06-18T10:09:00,atd,28.88
2023-06-18T10:10:00,atd,44.87
2023-06-18T10:11:00,atd,46.41
2023-06-18T10:12:00,atd,45.62
2023-06-18T10:13:00,atd,43.10
2023-06-18T10:14:00,atd,35.59
2023-06-18T10:15:00,atd,28.78
2023-06-18T10:16:00,atd,30.00
2023-06-18T10:17:00,atd,27.11
2023-06-18T10:18:00,atd,29.66
2023-06-18T10:19:00,atd,27.36
2023-06-18T10:20:00,atd,29.23
2023-06-18T10:21:00,atd,56.09
2023-06-18T10:22:00,atd,55.18
2023-06-18T10:23:00,atd,61.03
2023-06-18T10:24:00,atd,24.86
2023-06-18T10:25:00,atd,27.69
2023-06-18T10:26:00,atd,28.97
2023-06-18T10:27:00,atd,31.44
2023-06-18T10:28:00,atd,28.38
2023-06-18T10:29:00,atd,33.68
2023-06-18T10:30:00,atd,29.34
2023-06-18T10:31:00,atd,26.49
2023-06-18T10:32:00,atd,29.72
2023-06-18T10:33:00,atd,27.42
2023-06-18T10:34:00,atd,29.36
2023-06-18T10:35:00,atd,24.51
2023-06-18T10:36:00,atd,24.87
2023-06-18T10:37:00,atd,24.71
2023-06-18T10:38:00,atd,22.73
2023-06-18T10:39:00,atd,34.68
2023-06-18T10:40:00,atd,23.20
2023-06-18T10:41:00,atd,27.33
2023-06-18T10:42:00,atd,28.81
2023-06-18T10:43:00,atd,30.84
2023-06-18T10:44:00,atd,28.57
2023-06-18T10:45:00,atd,35.15
2023-06-18T10:46:00,atd,32.42
2023-06-18T10:47:00,atd,33.86
2023-06-18T10:48:00,atd,30.94
2023-06-18T10:49:00,atd,30.84
2023-06-18T10:50:00,atd,28.38
2023-06-18T10:51:00,atd,31.94
2023-06-18T10:52:00,atd,31.93
2023-06-18T10:53:00,atd,33.80
2023-06-18T10:54:00,atd,27.90
2023-06-18T10:55:00,atd,26.43
2023-06-18T10:56:00,atd,26.08
2023-06-18T10:57:00,atd,26.54
2023-06-18T10:58:00,atd,63.71
2023-06-18T10:59:00,atd,72.26
2023-06-18T11:00:00,atd,31.69
2023-06-18T11:01:00,atd,26.07
2023-06-18T11:02:00,atd,26.19
2023-06-18T11:03:00,atd,25.67
2023-06-18T11:04:00,atd,26.95
2023-06-18T11:05:00,atd,27.77
2023-06-18T11:06:00,atd,27.74
2023-06-18T11:07:00,atd,26.02
2023-06-18T11:08:00,atd,23.08
2023-06-18T11:09:00,atd,24.55
2023-06-18T11:10:00,atd,24.31
2023-06-18T11:11:00,atd,29.12
2023-06-18T11:12:00,atd,41.38
2023-06-18T11:13:00,atd,30.46
2023-06-18T11:14:00,atd,32.27
2023-06-18T11:15:00,atd,29.85
2023-06-18T11:16:00,atd,25.28
2023-06-18T11:17:00,atd,26.42
2023-06-18T11:18:00,atd,26.10
2023-06-18T11:19:00,atd,23.68
2023-06-18T11:20:00,atd,26.23
2023-06-18T11:21:00,atd,24.14
2023-06-18T11:22:00,atd,23.50
2023-06-18T11:23:00,atd,28.75
2023-06-18T11:24:00,atd,26.17
2023-06-18T11:25:00,atd,28.99
2023-06-18T11:26:00,atd,26.13
2023-06-18T11:27:00,atd,27.75
2023-06-18T11:28:00,atd,27.60
2023-06-18T11:29:00,atd,38.41
2023-06-18T11:30:00,atd,28.89
2023-06-18T11:31:00,atd,28.26
2023-06-18T11:32:00,atd,27.30
2023-06-18T11:33:00,atd,26.71
2023-06-18T11:34:00,atd,27.83
2023-06-18T11:35:00,atd,27.18
2023-06-18T11:36:00,atd,30.00
2023-06-18T11:37:00,atd,56.63
2023-06-18T11:38:00,atd,63.77
2023-06-18T11:39:00,atd,64.63
2023-06-18T11:40:00,atd,24.89
2023-06-18T11:41:00,atd,28.84
2023-06-18T11:42:00,atd,30.68
2023-06-18T11:43:00,atd,29.61
2023-06-18T11:44:00,atd,28.64
2023-06-18T11:45:00,atd,33.18
2023-06-18T11:46:00,atd,42.19
2023-06-18T11:47:00,atd,29.45
2023-06-18T11:48:00,atd,32.29
2023-06-18T11:49:00,atd,30.09
2023-06-18T11:50:00,atd,30.41
2023-06-18T11:51:00,atd,28.53
2023-06-18T11:52:00,atd,29.33
2023-06-18T11:53:00,atd,26.18
2023-06-18T11:54:00,atd,28.60
2023-06-18T11:55:00,atd,29.80
2023-06-18T11:56:00,atd,28.27
2023-06-18T11:57:00,atd,29.57
2023-06-18T11:58:00,atd,27.57
2023-06-18T11:59:00,atd,27.94
2023-06-18T12:00:00,atd,27.51
2023-06-18T12:01:00,atd,28.12
2023-06-18T12:02:00,atd,37.61
2023-06-18T12:03:00,atd,26.24
2023-06-18T12:04:00,atd,26.56
2023-06-18T12:05:00,atd,27.35
2023-06-18T12:06:00,atd,24.87
2023-06-18T12:07:00,atd,25.75
2023-06-18T12:08:00,atd,24.23
2023-06-18T12:09:00,atd,28.24
2023-06-18T12:10:00,atd,25.02
2023-06-18T12:11:00,atd,34.14
2023-06-18T12:12:00,atd,34.41
2023-06-18T12:13:00,atd,36.44
2023-06-18T12:14:00,atd,35.47
2023-06-18T12:15:00,atd,28.72
2023-06-18T12:16:00,atd,27.91
2023-06-18T12:17:00,atd,31.45
2023-06-18T12:18:00,atd,26.28
2023-06-18T12:19:00,atd,37.27
2023-06-18T12:20:00,atd,25.48
2023-06-18T12:21:00,atd,26.63
2023-06-18T12:22:00,atd,61.44
2023-06-18T12:23:00,atd,68.75
2023-06-18T12:24:00,atd,26.30
2023-06-18T12:25:00,atd,30.18
2023-06-18T12:26:00,atd,28.45
2023-06-18T12:27:00,atd,27.70
2023-06-18T12:28:00,atd,27.92
2023-06-18T12:29:00,atd,28.79
2023-06-18T12:30:00,atd,28.21
2023-06-18T12:31:00,atd,29.11
2023-06-18T12:32:00,atd,29.27
2023-06-18T12:33:00,atd,28.74
2023-06-18T12:34:00,atd,26.08
2023-06-18T12:35:00,atd,26.78
2023-06-18T12:36:00,atd,55.59
2023-06-18T12:37:00,atd,57.51
2023-06-18T12:38:00,atd,63.23
2023-06-18T12:39:00,atd,64.95
2023-06-18T12:40:00,atd,67.29
2023-06-18T12:41:00,atd,29.16
2023-06-18T12:42:00,atd,29.49
2023-06-18T12:43:00,atd,28.27
2023-06-18T12:44:00,atd,28.79
2023-06-18T12:45:00,atd,27.73
2023-06-18T12:46:00,atd,27.42
2023-06-18T12:47:00,atd,30.11
2023-06-18T12:48:00,atd,25.14
2023-06-18T12:49:00,atd,25.10
2023-06-18T12:50:00,atd,28.32
2023-06-18T12:51:00,atd,27.76
2023-06-18T12:52:00,atd,26.38
2023-06-18T12:53:00,atd,27.96
2023-06-18T12:54:00,atd,32.30
2023-06-18T12:55:00,atd,29.57
2023-06-18T12:56:00,atd,27.53
2023-06-18T12:57:00,atd,27.21
2023-06-18T12:58:00,atd,26.54
2023-06-18T12:59:00,atd,26.41
2023-06-18T13:00:00,atd,28.03
2023-06-18T13:01:00,atd,27.23
2023-06-18T13:02:00,atd,26.56
2023-06-18T13:03:00,atd,26.49
2023-06-18T13:04:00,atd,24.43
2023-06-18T13:05:00,atd,31.33
2023-06-18T13:06:00,atd,32.01
2023-06-18T13:07:00,atd,30.32
2023-06-18T13:08:00,atd,67.78
2023-06-18T13:09:00,atd,73.23
2023-06-18T13:10:00,atd,86.94
2023-06-18T13:11:00,atd,35.98
2023-06-18T13:12:00,atd,36.42
2023-06-18T13:13:00,atd,33.66
2023-06-18T13:14:00,atd,32.18
2023-06-18T13:15:00,atd,32.64
2023-06-18T13:16:00,atd,32.13
2023-06-18T13:17:00,atd,33.51
2023-06-18T13:18:00,atd,29.73